Regional Weather Roundup
Issued by NWS Bismarck, ND

Home | Current Version | Previous Version | Text Only | Print | Product List | Glossary On
Versions: 1 2 3 4 5 6 7 8 9 10 11 12 13 14 15 16 17 18 19 20 21 22 23 24 25 26 27 28 29 30 31 32 33 34 35 36 37 38 39 40 41 42 43 44 45 46 47 48 49 50
205
ASUS43 KBIS 080010
RWRBIS

NWR BROADCAST TEXT
NATIONAL WEATHER SERVICE BISMARCK ND
600 PM CST SUN FEB 07 2016

NOTE: "FAIR" INDICATES FEW OR NO CLOUDS BELOW 12,000 FEET WITH NO
SIGNIFICANT WEATHER AND/OR OBSTRUCTIONS TO VISIBILITY.


CITY           SKY/WX    TMP DP  RH WIND       PRES   REMARKS
WILLISTON      CLEAR     34  20  56 NW20G36   30.23R
MINOT          CLOUDY    33  18  53 NW25G36   30.09R
MINOT AFB      MOCLDY    30  19  65 NW32G39   30.08R WCI  14
BISMARCK       PTCLDY    36  17  46 NW33G45   30.07R
DICKINSON      PTCLDY    30  14  51 NW28G45   30.16R WCI  15
GARRISON         N/A     32  19  58 NW29G40   30.08R WCI  18
HETTINGER ARPT MOCLDY    33  13  43 NW33G45   30.18R WCI  18
JAMESTOWN      LGT SNOW  22  16  78 NW30G46   29.95R WCI   4
BEACH          CLOUDY    32  14  47 NW37G44   30.28R WCI  16
CARRINGTON     CLOUDY    23  19  86 NW35G44   30.00R WCI   4
HAZEN          MOCLDY    32  16  51 NW29G40   30.13S WCI  18
LINTON         FAIR      32  19  59 NW29G44   30.06R WCI  18
MANDAN         FAIR      32  16  51 NW31G51   30.07R WCI  17
OAKES          FLURRIES  23  18  80 N28G44    29.94R WCI   6
RUGBY          CLOUDY    23  18  80 NW24G36   30.03R WCI   7
STANLEY        CLOUDY    32  21  64 NW28G44   30.13R WCI  18
TIOGA          FAIR      30  23  74 NW25      30.21R WCI  16
WATFORD CITY   FAIR      32  16  51 NW22G35   30.21R WCI  19
$$

CITY           SKY/WX    TMP DP  RH WIND       PRES   REMARKS
GRAND FORKS    SNOW      16  10  77 N31G41    29.95R VSB 1/4 WCI  -4
GRAND FORKS AF FLURRIES  16  10  79 N17G30    29.96R WCI   0
DEVILS LAKE    FLURRIES  19  13  77 NW31G44   29.98R WCI   0
FARGO          LGT SNOW  19  13  77 N30G41    29.93R WCI   0
CAVALIER       HVY SNOW  14   9  79 N28G43    29.99R VSB 1/4 WCI  -6
GRAFTON        LGT SNOW  14  10  85 NW25G37   29.99R WCI  -5
GWINNER        CLOUDY    25  16  68 N29G38    29.94R WCI   8
LANGDON        LGT SNOW  14  10  85 N21G28    29.95R WCI  -4
ROLLA          FLURRIES  18  14  86 N32G40    29.99R WCI  -3
WALHALLA       LGT SNOW  14  10  85 N31G40    30.00R WCI  -7
$$

CITY           SKY/WX    TMP DP  RH WIND       PRES   REMARKS
ABERDEEN       CLOUDY    30  18  60 NW40G51   29.97R WCI  13
MOBRIDGE       PTCLDY    36  16  44 NW31G56   30.03R
BUFFALO          N/A     34  12  40 NW33G49   30.16R WCI  20
RAPID CITY     CLEAR     35   6  29 NW30G58   30.20R
GLASGOW        CLEAR     34  20  56 NW16      30.36R
SIDNEY         CLEAR     36  16  44 NW18G30   30.28R
WOLF POINT     CLEAR     37  19  48 NW24G32   30.33R
GLENDIVE       CLEAR     34  16  47 NW24G32   30.32R
MILES CITY     CLEAR     36  10  34 NW21G32   30.37R
BAKER          PTCLDY    33  12  41 NW26G36   30.28R WCI  20
$$

CITY           SKY/WX    TMP DP  RH WIND       PRES   REMARKS
BILLINGS       MOCLDY    38   9  30 N7        30.42R
GREAT FALLS    CLOUDY    41  15  35 NW6       30.41S
REGINA         PTCLDY    28  19  69 NW20G26   30.25R WCI  15
ESTEVAN        PTCLDY    28  21  74 NW25      30.18R WCI  14
$$





USA.gov is the U.S. government's official web portal to all federal, state and local government web resources and services.